There are no active watches, warnings or advisories



For GOD so loved the world that HE gave HIS one and only SON, that whoever believes in HIM shall not perish but have eternal life.


Thunder radar more information blitzortung!


Rain radar more information rain snow radar



Select another period ( hide this area )

Units Period Custom range Directly to
Metric English Both
Daily Weekly Monthly Yearly
use both date-selectors for a custom range
previous Day
With this date

WeatherUnderground graphs for this period ( click here )


Daily Summary for Sunday Apr 21 2019
Time Temp. ( °C ) Dew pt. ( °C ) Wind ( km/h ) from Gust ( km/h ) Pressure ( hPa ) Humid.( % ) Rainrate ( cm ) Solar ( W/m2 )
High10,2 8,2 15,0 WNW ( 375/661 ) 20,4 1022,9 97 0,25 573
Average7,2 6,2 3,9 WNW #131/270 6,8 1015,8 94 0,00 185 #159/270
Low4,1 3,4 -   0,0 1007,7 85 -  
Daily Tabular details for Sunday Apr 21 2019
Time Temp. ( °C ) Dew pt. ( °C ) Wind ( km/h ) from Gust ( km/h ) Pressure ( hPa ) Humid.( % ) Rainrate ( cm ) Solar ( W/m2 )
00:04 7,9 7,3 3,7 WSW 5,6 1007,7 96 - -
00:09 7,9 7,3 1,6 West 5,6 1007,7 96 - -
00:14 7,8 7,2 1,1 West 3,7 1007,7 96 - -
00:19 7,9 7,3 1,4 West 1,9 1008,0 96 - -
00:24 7,9 7,3   Calm 3,7 1008,0 96 - -
00:29 7,9 7,3   Calm   1008,0 96 - -
00:34 7,9 7,3   Calm   1008,0 96 - -
00:39 7,9 7,3 3,2 West 5,6 1008,0 96 - -
00:44 7,9 7,3   Calm 3,7 1008,4 96 - -
00:49 7,9 7,3   Calm   1008,4 96 - -
00:54 7,9 7,3   Calm   1008,7 96 0,25 -
00:59 7,8 7,2   Calm 1,9 1008,7 96 0,25 -
01:04 7,9 7,3   Calm 3,7 1009,0 96 0,25 -
01:09 7,8 7,2 1,9 West 3,2 1009,0 96 0,25 -
01:14 7,8 7,2   Calm   1009,0 96 0,25 -
01:19 7,8 7,2   Calm   1009,0 96 0,25 -
01:24 7,8 7,2   Calm   1009,0 96 0,25 -
01:29 7,9 7,3 4,5 West 5,6 1009,0 96 0,25 -
01:34 7,8 7,2 0,2 West 5,6 1009,4 96 0,25 -
01:39 7,8 7,2 1,8 West 3,2 1009,0 96 0,25 -
01:44 7,7 7,1 1,6 West 3,7 1009,0 96 0,25 -
01:49 7,7 7,1   Calm 1,9 1009,4 96 0,25 -
01:54 7,6 7,0 0,6 West 3,7 1009,4 96 - -
01:59 7,6 6,9 3,1 West 1,9 1009,4 96 - -
02:04 7,5 6,9 0,2 West 1,9 1009,4 96 - -
02:09 7,5 6,9   Calm 1,6 1009,4 96 - -
02:14 7,4 6,8   Calm   1009,4 96 - -
02:19 7,4 6,8 0,2 West   1009,4 96 - -
02:24 7,4 6,8 1,9 West 3,7 1009,4 96 - -
02:29 7,4 6,8 0,5 West 1,9 1009,4 96 - -
02:34 7,3 6,7 0,6 West 5,6 1009,4 96 - -
02:39 7,2 6,6 3,5 West 5,6 1009,4 96 - -
02:44 7,2 6,6 1,9 West 3,7 1009,4 96 - -
02:49 7,1 6,5 3,1 West 3,2 1009,4 96 - -
02:54 7,2 6,6 0,3 West   1009,4 96 - -
02:59 7,1 6,5 2,7 West 4,8 1009,4 96 - -
03:04 7,1 6,5 0,5 West 3,7 1009,4 96 - -
03:09 7,1 6,4 2,4 West 3,7 1009,7 96 - -
03:14 7,0 6,4 4,3 West 9,7 1009,7 96 - -
03:19 6,9 6,3 2,9 West 5,6 1009,7 96 - -
03:24 6,9 6,3 4,7 West 4,8 1010,0 96 - -
03:29 6,9 6,3 1,4 West 3,7 1009,7 96 - -
03:34 6,8 6,2 5,8 WNW 11,1 1010,0 96 - -
03:39 6,8 6,2 6,1 WNW 7,4 1010,0 96 - -
03:44 6,7 6,1 4,2 WNW 5,6 1010,0 96 - -
03:49 6,7 6,1 4,8 WNW 7,4 1010,0 96 - -
03:54 6,7 6,1   Calm 3,7 1010,0 96 - -
03:59 6,6 5,9 5,3 WNW 8,0 1010,0 96 - -
04:04 6,5 5,9 6,1 WNW 7,4 1010,0 96 - -
04:09 6,5 5,9 2,3 WNW 3,7 1010,4 96 - -
04:14 6,5 5,9 0,2 WNW 1,9 1010,4 96 - -
04:19 6,5 5,9 0,2 WNW 3,7 1010,4 96 - -
04:24 6,5 5,9 0,2 WNW   1010,7 96 - -
04:29 6,5 5,9 4,3 WNW 5,6 1010,7 96 - -
04:34 6,5 5,9 1,0 WNW 3,7 1011,1 96 - -
04:39 6,5 5,9 4,2 WNW 7,4 1011,1 96 - -
04:44 6,4 5,8 2,4 WNW 5,6 1011,1 96 - -
04:49 6,4 5,8 2,6 WNW 5,6 1011,1 96 - -
04:54 6,3 5,7 5,0 WNW 7,4 1011,4 96 - -
04:59 6,3 5,7 4,5 WNW 6,4 1011,4 96 - -
05:04 6,2 5,6 4,2 WNW 5,6 1011,4 96 - -
05:09 6,2 5,6 3,2 WNW 5,6 1011,4 96 - -
05:14 6,1 5,4 0,2 WNW 5,6 1011,4 96 - -
05:19 6,1 5,4 3,1 WNW 5,6 1011,7 96 - -
05:24 6,0 5,4 1,9 WNW 3,2 1011,7 96 - -
05:29 5,9 5,3 2,1 WNW 4,8 1012,1 96 - -
05:34 5,9 5,3 3,4 WNW 7,4 1012,1 96 - -
05:39 5,8 5,2 4,5 WNW 7,4 1012,1 96 - -
05:44 5,6 5,0 2,9 WNW 5,6 1012,1 96 - -
05:49 5,6 4,9 2,3 WNW 4,8 1012,1 96 - -
05:54 5,5 4,9 4,5 WNW 7,4 1012,4 96 - -
05:59 5,4 4,8 2,4 WNW 5,6 1012,4 96 - -
06:04 5,4 4,8 1,6 WNW 3,7 1012,8 96 - -
06:09 5,4 4,8 2,1 WNW 3,7 1012,8 96 - -
06:14 5,4 4,8 1,1 WNW 3,7 1012,8 96 - -
06:19 5,4 4,8 1,9 WNW 5,6 1012,8 96 - -
06:24 5,4 4,8 4,0 WNW 5,6 1012,8 96 - -
06:29 5,4 4,8 0,8 WNW 3,7 1012,8 96 - -
06:34 5,4 4,8 1,8 WNW 5,6 1013,1 96 - -
06:39 5,4 4,8 2,6 WNW 3,7 1013,1 96 - -
06:44 5,5 4,9   Calm 1,9 1013,4 96 - -
06:49 5,4 4,8   Calm   1013,4 96 - 5
06:54 5,5 4,9 1,6 WNW 4,8 1013,4 96 - 7
06:59 5,6 4,9 0,8 WNW 3,2 1013,4 96 - 9
07:04 5,6 4,9 1,0 WNW 3,7 1013,8 96 - 19
07:09 5,7 5,1 2,3 WNW 3,7 1013,8 96 - 30
07:14 5,7 5,1 1,8 WNW 3,7 1014,1 96 - 19
07:19 5,7 5,1 4,8 West 7,4 1014,1 96 - 19
07:24 5,7 5,1   Calm 3,7 1014,1 96 - 18
07:29 5,8 5,2 2,3 West 5,6 1014,1 96 - 30
07:34 5,9 5,3 2,3 West 9,3 1014,4 96 - 26
07:39 5,9 5,3 3,1 West 5,6 1014,4 96 - 23
07:44 6,0 5,4 0,6 West 5,6 1014,4 96 - 30
07:49 6,0 5,4 1,6 West 1,9 1014,4 96 - 37
07:54 6,1 5,5 2,4 West 1,9 1014,4 96 - 42
07:59 6,2 5,6 0,8 West 1,9 1014,4 96 - 40
08:04 6,2 5,6 0,5 SW 3,7 1014,8 96 - 33
08:09 6,2 5,6   Calm   1014,8 96 - 33
08:14 6,2 5,6 3,1 SW 1,9 1014,8 96 - 54
08:19 6,4 5,8 0,8 SW 3,7 1014,8 96 - 69
08:24 6,5 5,9   Calm 3,7 1014,8 96 - 69
08:29 6,4 5,8 0,2 SW   1014,8 96 - 88
08:34 6,5 5,9 2,6 WSW 5,6 1015,1 96 - 83
08:39 6,5 5,9 0,5 WSW 3,7 1015,1 96 - 72
08:44 6,5 5,9 1,1 WSW 3,7 1015,1 96 - 65
08:49 6,6 5,9 2,3 WSW 3,7 1015,1 96 - 67
08:54 6,7 6,3 1,8 WSW 4,8 1015,5 97 - 83
08:59 6,7 6,3 5,8 WNW 11,1 1015,5 97 - 76
09:04 6,8 6,3 3,2 WNW 5,6 1015,5 97 - 90
09:09 6,8 6,3 8,2 WNW 8,0 1015,5 97 - 95
09:14 6,9 6,3 5,8 WNW 6,4 1015,5 96 - 104
09:19 6,9 6,3 3,1 WNW 7,4 1015,5 96 - 90
09:24 7,0 6,4 5,3 WNW 5,6 1015,5 96 - 120
09:29 7,1 6,7 2,4 WNW 5,6 1015,5 97 - 123
09:34 7,2 6,6 3,4 WNW 5,6 1015,8 96 - 100
09:39 7,2 6,7 0,3 WNW 3,7 1015,8 97 - 121
09:44 7,4 7,0 2,3 WNW 5,6 1015,8 97 - 160
09:49 7,4 6,9 2,7 WNW 5,6 1015,8 97 - 156
09:54 7,5 7,1 1,9 WNW 5,6 1015,8 97 - 169
09:59 7,6 7,0 4,8 WNW 6,4 1015,8 96 - 162
10:04 7,6 7,2 8,9 WNW 11,1 1016,1 97 - 142
10:09 7,6 7,0 2,3 WNW 5,6 1016,1 96 - 144
10:15 7,6 7,0 0,3 WNW 3,7 1016,1 96 - 128
10:19 7,6 7,0 4,7 WNW 7,4 1016,1 96 - 120
10:24 7,7 7,1 6,8 WNW 8,0 1016,1 96 - 135
10:29 7,6 6,9 4,8 WNW 5,6 1016,5 96 - 125
10:34 7,5 6,9 6,4 WNW 13,0 1016,5 96 - 146
10:39 7,4 6,8 7,1 WNW 14,8 1016,5 96 - 144
10:44 7,7 7,1 2,9 WNW 7,4 1016,5 96 - 176
10:49 8,0 7,4 1,6 WNW 7,4 1016,5 96 - 204
10:54 8,2 7,6 2,4 WNW 5,6 1016,5 96 - 288
10:59 8,4 7,8 8,0 WNW 8,0 1016,5 96 - 271
11:04 8,4 7,8 7,9 WNW 11,1 1016,8 96 - 251
11:10 8,4 7,7 10,8 WNW 16,7 1016,8 95 - 204
11:14 8,3 7,6 4,8 WNW 9,3 1016,8 95 - 197
11:19 8,5 7,7 7,7 NW 18,5 1017,2 95 - 211
11:24 8,4 7,5 7,9 WNW 16,7 1017,2 94 - 274
11:29 8,4 7,6 8,5 WNW 14,5 1017,2 94 - 278
11:34 8,6 7,7 7,2 WNW 14,8 1017,2 94 - 366
11:39 8,7 7,6 7,6 West 11,3 1017,2 93 - 381
11:44 8,7 7,6 6,8 West 9,3 1017,2 93 - 352
11:49 8,7 7,6 5,6 West 9,3 1017,2 93 - 385
11:54 8,7 7,4 3,9 WNW 14,5 1017,5 92 - 285
11:59 8,7 7,4 12,6 WNW 13,0 1017,5 92 - 313
12:04 8,7 7,4 6,9 WNW 9,3 1017,5 92 - 258
12:09 8,5 7,3 6,8 WNW 7,4 1017,5 92 - 192
12:14 8,4 7,2 4,8 WNW 5,6 1017,5 92 - 192
12:19 8,2 6,9 6,1 WNW 14,5 1017,5 92 - 209
12:24 7,9 6,7 3,5 West 5,6 1017,5 92 - 227
12:29 7,8 6,7 4,2 WSW 6,4 1017,5 93 - 279
12:34 7,7 6,6 5,3 WSW 5,6 1017,5 93 - 283
12:39 7,7 6,7 5,5 West 9,7 1017,8 93 - 251
12:44 7,7 6,7 5,5 WNW 11,3 1017,8 93 - 202
12:49 7,5 6,4 6,9 West 9,3 1017,8 93 - 223
12:54 7,4 6,4 5,3 West 11,3 1017,8 93 - 359
12:59 7,4 6,3 8,4 WNW 14,5 1017,8 93 - 287
13:04 7,4 6,4 9,2 WNW 11,1 1017,8 93 - 336
13:09 7,6 6,5 3,9 West 7,4 1017,8 93 - 338
13:14 7,9 7,1 9,8 WNW 14,8 1017,8 94 - 302
13:19 7,9 6,8 3,5 West 11,1 1018,2 93 - 294
13:25 8,1 7,2 7,1 WNW 13,0 1018,2 94 - 306
13:29 8,0 6,9 4,5 SW 11,1 1018,2 93 - 304
13:34 8,1 7,0 11,9 West 14,8 1018,2 93 - 234
13:39 7,8 6,8 13,7 West 20,4 1018,5 93 - 218
13:44 7,6 6,5 6,4 West 11,1 1018,5 93 - 255
13:49 7,4 6,4 5,0 West 11,1 1018,5 93 - 292
13:54 7,6 6,7 8,9 West 13,0 1018,5 94 - 255
13:59 7,8 6,9 5,8 West 13,0 1018,5 94 - 301
14:04 7,8 6,9 4,0 West 7,4 1018,5 94 - 353
14:09 7,8 6,7 10,8 West 18,5 1018,5 93 - 288
14:14 7,7 6,6 12,6 WNW 18,5 1018,5 93 - 283
14:19 7,7 6,6 5,6 West 11,3 1018,8 93 - 294
14:24 7,7 6,7 4,2 WSW 5,6 1018,8 93 - 287
14:29 7,8 6,7 7,1 WSW 9,3 1018,8 93 - 276
14:34 7,9 6,8 4,3 West 5,6 1018,8 93 - 329
14:39 8,1 7,2 6,0 West 5,6 1018,8 94 - 246
14:44 7,9 6,8 5,8 WSW 11,1 1019,2 93 - 232
14:49 7,7 6,7 6,6 West 9,3 1019,2 93 - 237
14:54 7,7 6,7 4,8 West 16,7 1019,2 93 - 251
14:59 7,7 6,6 7,6 West 7,4 1019,2 93 - 244
15:04 7,7 6,7 6,8 WNW 13,0 1019,2 93 - 234
15:09 7,8 6,9 9,0 West 14,8 1019,2 94 - 243
15:14 7,7 6,6 5,1 WSW 7,4 1019,2 93 - 221
15:19 7,8 6,9 9,8 West 11,1 1019,2 94 - 295
15:24 7,7 6,6 5,5 WNW 16,7 1019,5 93 - 287
15:29 7,9 7,1 1,4 West 5,6 1019,5 94 - 311
15:34 8,0 6,9 5,5 West 6,4 1019,5 93 - 272
15:39 8,3 7,4 8,7 WNW 16,7 1019,5 94 - 264
15:44 8,4 7,3 7,6 West 9,3 1019,5 93 - 241
15:49 8,4 7,2 4,8 West 9,3 1019,5 92 - 338
15:54 8,7 7,4 8,4 West 11,1 1019,5 92 - 424
15:59 9,2 8,0 6,0 West 14,8 1019,5 92 - 357
16:04 9,4 8,0 3,2 West 5,6 1019,5 91 - 390
16:09 9,8 8,2 5,6 West 9,3 1019,2 90 - 357
16:14 9,8 8,1 7,4 WNW 13,0 1019,2 89 - 471
16:19 10,0 8,1 14,6 West 16,7 1019,2 88 - 515
16:24 10,2 8,1 13,8 West 18,5 1019,5 87 - 424
16:29 9,8 7,6 9,8 West 13,0 1019,5 86 - 499
16:34 10,1 8,0 5,0 WNW 9,3 1019,5 87 - 387
16:39 9,8 7,6 15,0 WNW 20,4 1019,5 86 - 371
16:44 9,6 7,4 5,5 WSW 5,6 1019,5 86 - 387
16:50 9,8 7,7 6,6 WSW 13,0 1019,5 87 - 394
16:54 9,7 7,7 14,2 NW 16,7 1019,5 87 - 264
16:59 10,1 7,8 9,5 WNW 11,3 1019,5 86 - 376
17:04 9,9 7,7 6,0 WNW 11,1 1019,5 86 - 573
17:10 9,8 7,4 10,5 WNW 14,8 1019,9 85 - 163
17:14 9,4 7,2 13,0 WNW 16,7 1019,9 86 - 552
17:19 9,4 7,2 14,0 WNW 18,5 1019,9 86 - 387
17:24 8,9 6,7 7,1 WSW 9,3 1019,9 86 - 72
17:29 8,3 6,3 8,9 WNW 14,8 1020,2 87 - 53
17:34 8,0 6,1 6,8 WNW 8,0 1020,2 88 - 51
17:39 7,8 6,1 12,1 WNW 18,5 1020,2 89 - 56
17:45 7,8 6,1 8,5 West 14,8 1020,5 89 - 62
17:49 7,7 6,1 8,5 West 9,7 1020,5 90 - 65
17:54 7,5 5,9 10,3 West 14,8 1020,5 90 - 77
17:59 7,4 5,9 6,8 West 13,0 1020,5 90 - 77
18:04 7,4 6,0 1,0 WNW 4,8 1020,5 91 - 62
18:09 7,4 6,1 1,4 WNW 7,4 1020,5 91 - 67
18:14 7,6 6,2 4,7 WNW 5,6 1020,2 91 - 76
18:19 7,7 6,3 4,7 WNW 5,6 1020,2 91 - 70
18:24 7,8 6,4 2,9 WNW 6,4 1020,5 91 - 53
18:29 7,8 6,2 8,9 WNW 16,1 1020,5 90 - 49
18:34 7,7 6,2 7,1 WNW 9,3 1020,5 90 - 54
18:39 7,8 6,2 3,5 WNW 6,4 1020,5 90 - 60
18:44 7,8 6,3 5,6 WNW 8,0 1020,5 90 - 56
18:49 7,8 6,3 4,3 WNW 11,1 1020,5 90 - 62
18:54 7,8 6,3 7,1 WNW 6,4 1020,9 90 - 58
18:59 7,8 6,2 4,2 WNW 7,4 1020,9 90 - 60
19:04 7,8 6,3 7,2 WNW 14,8 1020,9 90 - 47
19:09 7,7 6,2 5,1 WNW 11,1 1021,2 90 - 44
19:14 7,7 6,1 3,5 WNW 8,0 1021,2 90 - 35
19:19 7,6 6,2 4,0 WNW 5,6 1021,2 91 - 33
19:24 7,6 6,0 3,5 WNW 5,6 1021,2 90 - 30
19:29 7,5 6,1 3,4 WNW 5,6 1021,2 91 - 26
19:34 7,5 6,1 4,2 WNW 5,6 1021,2 91 - 25
19:40 7,5 5,9 1,6 WNW 5,6 1021,2 90 - 21
19:44 7,4 5,9 6,8 West 11,1 1021,2 90 - 14
19:49 7,4 5,8 0,6 WNW 3,7 1021,2 90 - 11
19:54 7,2 5,7 1,9 WNW 13,0 1021,2 90 - 7
19:59 7,2 5,6 1,9 WNW 5,6 1021,2 90 - 5
20:04 7,0 5,4 6,0 West 7,4 1021,6 90 - -
20:09 6,8 5,3 5,6 WNW 5,6 1021,6 90 - -
20:14 6,6 5,2 5,6 WNW 11,1 1021,6 91 - -
20:19 6,4 5,1 4,8 WNW 7,4 1021,9 91 - -
20:24 6,3 5,1 0,8 WNW 1,9 1021,9 92 - -
20:29 6,1 4,9 0,3 WNW   1021,9 92 - -
20:34 5,9 4,7   Calm   1021,9 92 - -
20:39 5,9 4,8   Calm 1,9 1021,9 93 - -
20:44 5,7 4,7   Calm   1021,9 93 - -
20:49 5,6 4,6   Calm   1022,2 93 - -
20:54 5,4 4,3   Calm   1021,9 93 - -
20:59 5,3 4,2   Calm   1021,9 93 - -
21:04 5,2 4,1   Calm   1021,9 93 - -
21:09 5,1 4,2   Calm   1022,2 94 - -
21:14 4,9 4,1 0,5 WNW 1,6 1022,2 94 - -
21:19 4,9 4,0   Calm   1022,2 94 - -
21:24 4,9 4,1   Calm   1022,2 94 - -
21:29 4,9 4,0   Calm   1022,2 94 - -
21:34 4,8 3,9   Calm   1022,6 94 - -
21:39 4,8 3,9 0,5 WNW 1,9 1022,6 94 - -
21:44 4,8 4,1   Calm   1022,6 95 - -
21:49 4,8 4,1   Calm   1022,6 95 - -
21:54 4,7 3,9   Calm   1022,9 95 - -
21:59 4,4 3,6   Calm   1022,9 94 - -
22:05 4,4 3,7   Calm   1022,9 95 - -
22:09 4,3 3,6   Calm   1022,9 95 - -
22:15 4,3 3,6   Calm   1022,9 95 - -
22:19 4,2 3,4 0,2 WNW 1,6 1022,9 95 - -
22:24 4,1 3,4   Calm   1022,9 95 - -
22:29 4,1 3,4 0,3 WNW   1022,9 95 - -
Daily Summary for Sunday Apr 21 2019
Time Temp. ( °C ) Dew pt. ( °C ) Wind ( km/h ) from Gust ( km/h ) Pressure ( hPa ) Humid.( % ) Rainrate ( cm ) Solar ( W/m2 )
High10,2 8,2 15,0 WNW ( 375/661 ) 20,4 1022,9 97 0,25 573
Average7,2 6,2 3,9 WNW #131/270 6,8 1015,8 94 0,00 185 #159/270
Low4,1 3,4 -   0,0 1007,7 85 -  
Daily Tabular details for Sunday Apr 21 2019
Time Temp. ( °C ) Dew pt. ( °C ) Wind ( km/h ) from Gust ( km/h ) Pressure ( hPa ) Humid.( % ) Rainrate ( cm ) Solar ( W/m2 )
00:04 7,9 7,3 3,7 WSW 5,6 1007,7 96 - -
00:09 7,9 7,3 1,6 West 5,6 1007,7 96 - -
00:14 7,8 7,2 1,1 West 3,7 1007,7 96 - -
00:19 7,9 7,3 1,4 West 1,9 1008,0 96 - -
00:24 7,9 7,3   Calm 3,7 1008,0 96 - -
00:29 7,9 7,3   Calm   1008,0 96 - -
00:34 7,9 7,3   Calm   1008,0 96 - -
00:39 7,9 7,3 3,2 West 5,6 1008,0 96 - -
00:44 7,9 7,3   Calm 3,7 1008,4 96 - -
00:49 7,9 7,3   Calm   1008,4 96 - -
00:54 7,9 7,3   Calm   1008,7 96 0,25 -
00:59 7,8 7,2   Calm 1,9 1008,7 96 0,25 -
01:04 7,9 7,3   Calm 3,7 1009,0 96 0,25 -
01:09 7,8 7,2 1,9 West 3,2 1009,0 96 0,25 -
01:14 7,8 7,2   Calm   1009,0 96 0,25 -
01:19 7,8 7,2   Calm   1009,0 96 0,25 -
01:24 7,8 7,2   Calm   1009,0 96 0,25 -
01:29 7,9 7,3 4,5 West 5,6 1009,0 96 0,25 -
01:34 7,8 7,2 0,2 West 5,6 1009,4 96 0,25 -
01:39 7,8 7,2 1,8 West 3,2 1009,0 96 0,25 -
01:44 7,7 7,1 1,6 West 3,7 1009,0 96 0,25 -
01:49 7,7 7,1   Calm 1,9 1009,4 96 0,25 -
01:54 7,6 7,0 0,6 West 3,7 1009,4 96 - -
01:59 7,6 6,9 3,1 West 1,9 1009,4 96 - -
02:04 7,5 6,9 0,2 West 1,9 1009,4 96 - -
02:09 7,5 6,9   Calm 1,6 1009,4 96 - -
02:14 7,4 6,8   Calm   1009,4 96 - -
02:19 7,4 6,8 0,2 West   1009,4 96 - -
02:24 7,4 6,8 1,9 West 3,7 1009,4 96 - -
02:29 7,4 6,8 0,5 West 1,9 1009,4 96 - -
02:34 7,3 6,7 0,6 West 5,6 1009,4 96 - -
02:39 7,2 6,6 3,5 West 5,6 1009,4 96 - -
02:44 7,2 6,6 1,9 West 3,7 1009,4 96 - -
02:49 7,1 6,5 3,1 West 3,2 1009,4 96 - -
02:54 7,2 6,6 0,3 West   1009,4 96 - -
02:59 7,1 6,5 2,7 West 4,8 1009,4 96 - -
03:04 7,1 6,5 0,5 West 3,7 1009,4 96 - -
03:09 7,1 6,4 2,4 West 3,7 1009,7 96 - -
03:14 7,0 6,4 4,3 West 9,7 1009,7 96 - -
03:19 6,9 6,3 2,9 West 5,6 1009,7 96 - -
03:24 6,9 6,3 4,7 West 4,8 1010,0 96 - -
03:29 6,9 6,3 1,4 West 3,7 1009,7 96 - -
03:34 6,8 6,2 5,8 WNW 11,1 1010,0 96 - -
03:39 6,8 6,2 6,1 WNW 7,4 1010,0 96 - -
03:44 6,7 6,1 4,2 WNW 5,6 1010,0 96 - -
03:49 6,7 6,1 4,8 WNW 7,4 1010,0 96 - -
03:54 6,7 6,1   Calm 3,7 1010,0 96 - -
03:59 6,6 5,9 5,3 WNW 8,0 1010,0 96 - -
04:04 6,5 5,9 6,1 WNW 7,4 1010,0 96 - -
04:09 6,5 5,9 2,3 WNW 3,7 1010,4 96 - -
04:14 6,5 5,9 0,2 WNW 1,9 1010,4 96 - -
04:19 6,5 5,9 0,2 WNW 3,7 1010,4 96 - -
04:24 6,5 5,9 0,2 WNW   1010,7 96 - -
04:29 6,5 5,9 4,3 WNW 5,6 1010,7 96 - -
04:34 6,5 5,9 1,0 WNW 3,7 1011,1 96 - -
04:39 6,5 5,9 4,2 WNW 7,4 1011,1 96 - -
04:44 6,4 5,8 2,4 WNW 5,6 1011,1 96 - -
04:49 6,4 5,8 2,6 WNW 5,6 1011,1 96 - -
04:54 6,3 5,7 5,0 WNW 7,4 1011,4 96 - -
04:59 6,3 5,7 4,5 WNW 6,4 1011,4 96 - -
05:04 6,2 5,6 4,2 WNW 5,6 1011,4 96 - -
05:09 6,2 5,6 3,2 WNW 5,6 1011,4 96 - -
05:14 6,1 5,4 0,2 WNW 5,6 1011,4 96 - -
05:19 6,1 5,4 3,1 WNW 5,6 1011,7 96 - -
05:24 6,0 5,4 1,9 WNW 3,2 1011,7 96 - -
05:29 5,9 5,3 2,1 WNW 4,8 1012,1 96 - -
05:34 5,9 5,3 3,4 WNW 7,4 1012,1 96 - -
05:39 5,8 5,2 4,5 WNW 7,4 1012,1 96 - -
05:44 5,6 5,0 2,9 WNW 5,6 1012,1 96 - -
05:49 5,6 4,9 2,3 WNW 4,8 1012,1 96 - -
05:54 5,5 4,9 4,5 WNW 7,4 1012,4 96 - -
05:59 5,4 4,8 2,4 WNW 5,6 1012,4 96 - -
06:04 5,4 4,8 1,6 WNW 3,7 1012,8 96 - -
06:09 5,4 4,8 2,1 WNW 3,7 1012,8 96 - -
06:14 5,4 4,8 1,1 WNW 3,7 1012,8 96 - -
06:19 5,4 4,8 1,9 WNW 5,6 1012,8 96 - -
06:24 5,4 4,8 4,0 WNW 5,6 1012,8 96 - -
06:29 5,4 4,8 0,8 WNW 3,7 1012,8 96 - -
06:34 5,4 4,8 1,8 WNW 5,6 1013,1 96 - -
06:39 5,4 4,8 2,6 WNW 3,7 1013,1 96 - -
06:44 5,5 4,9   Calm 1,9 1013,4 96 - -
06:49 5,4 4,8   Calm   1013,4 96 - 5
06:54 5,5 4,9 1,6 WNW 4,8 1013,4 96 - 7
06:59 5,6 4,9 0,8 WNW 3,2 1013,4 96 - 9
07:04 5,6 4,9 1,0 WNW 3,7 1013,8 96 - 19
07:09 5,7 5,1 2,3 WNW 3,7 1013,8 96 - 30
07:14 5,7 5,1 1,8 WNW 3,7 1014,1 96 - 19
07:19 5,7 5,1 4,8 West 7,4 1014,1 96 - 19
07:24 5,7 5,1   Calm 3,7 1014,1 96 - 18
07:29 5,8 5,2 2,3 West 5,6 1014,1 96 - 30
07:34 5,9 5,3 2,3 West 9,3 1014,4 96 - 26
07:39 5,9 5,3 3,1 West 5,6 1014,4 96 - 23
07:44 6,0 5,4 0,6 West 5,6 1014,4 96 - 30
07:49 6,0 5,4 1,6 West 1,9 1014,4 96 - 37
07:54 6,1 5,5 2,4 West 1,9 1014,4 96 - 42
07:59 6,2 5,6 0,8 West 1,9 1014,4 96 - 40
08:04 6,2 5,6 0,5 SW 3,7 1014,8 96 - 33
08:09 6,2 5,6   Calm   1014,8 96 - 33
08:14 6,2 5,6 3,1 SW 1,9 1014,8 96 - 54
08:19 6,4 5,8 0,8 SW 3,7 1014,8 96 - 69
08:24 6,5 5,9   Calm 3,7 1014,8 96 - 69
08:29 6,4 5,8 0,2 SW   1014,8 96 - 88
08:34 6,5 5,9 2,6 WSW 5,6 1015,1 96 - 83
08:39 6,5 5,9 0,5 WSW 3,7 1015,1 96 - 72
08:44 6,5 5,9 1,1 WSW 3,7 1015,1 96 - 65
08:49 6,6 5,9 2,3 WSW 3,7 1015,1 96 - 67
08:54 6,7 6,3 1,8 WSW 4,8 1015,5 97 - 83
08:59 6,7 6,3 5,8 WNW 11,1 1015,5 97 - 76
09:04 6,8 6,3 3,2 WNW 5,6 1015,5 97 - 90
09:09 6,8 6,3 8,2 WNW 8,0 1015,5 97 - 95
09:14 6,9 6,3 5,8 WNW 6,4 1015,5 96 - 104
09:19 6,9 6,3 3,1 WNW 7,4 1015,5 96 - 90
09:24 7,0 6,4 5,3 WNW 5,6 1015,5 96 - 120
09:29 7,1 6,7 2,4 WNW 5,6 1015,5 97 - 123
09:34 7,2 6,6 3,4 WNW 5,6 1015,8 96 - 100
09:39 7,2 6,7 0,3 WNW 3,7 1015,8 97 - 121
09:44 7,4 7,0 2,3 WNW 5,6 1015,8 97 - 160
09:49 7,4 6,9 2,7 WNW 5,6 1015,8 97 - 156
09:54 7,5 7,1 1,9 WNW 5,6 1015,8 97 - 169
09:59 7,6 7,0 4,8 WNW 6,4 1015,8 96 - 162
10:04 7,6 7,2 8,9 WNW 11,1 1016,1 97 - 142
10:09 7,6 7,0 2,3 WNW 5,6 1016,1 96 - 144
10:15 7,6 7,0 0,3 WNW 3,7 1016,1 96 - 128
10:19 7,6 7,0 4,7 WNW 7,4 1016,1 96 - 120
10:24 7,7 7,1 6,8 WNW 8,0 1016,1 96 - 135
10:29 7,6 6,9 4,8 WNW 5,6 1016,5 96 - 125
10:34 7,5 6,9 6,4 WNW 13,0 1016,5 96 - 146
10:39 7,4 6,8 7,1 WNW 14,8 1016,5 96 - 144
10:44 7,7 7,1 2,9 WNW 7,4 1016,5 96 - 176
10:49 8,0 7,4 1,6 WNW 7,4 1016,5 96 - 204
10:54 8,2 7,6 2,4 WNW 5,6 1016,5 96 - 288
10:59 8,4 7,8 8,0 WNW 8,0 1016,5 96 - 271
11:04 8,4 7,8 7,9 WNW 11,1 1016,8 96 - 251
11:10 8,4 7,7 10,8 WNW 16,7 1016,8 95 - 204
11:14 8,3 7,6 4,8 WNW 9,3 1016,8 95 - 197
11:19 8,5 7,7 7,7 NW 18,5 1017,2 95 - 211
11:24 8,4 7,5 7,9 WNW 16,7 1017,2 94 - 274
11:29 8,4 7,6 8,5 WNW 14,5 1017,2 94 - 278
11:34 8,6 7,7 7,2 WNW 14,8 1017,2 94 - 366
11:39 8,7 7,6 7,6 West 11,3 1017,2 93 - 381
11:44 8,7 7,6 6,8 West 9,3 1017,2 93 - 352
11:49 8,7 7,6 5,6 West 9,3 1017,2 93 - 385
11:54 8,7 7,4 3,9 WNW 14,5 1017,5 92 - 285
11:59 8,7 7,4 12,6 WNW 13,0 1017,5 92 - 313
12:04 8,7 7,4 6,9 WNW 9,3 1017,5 92 - 258
12:09 8,5 7,3 6,8 WNW 7,4 1017,5 92 - 192
12:14 8,4 7,2 4,8 WNW 5,6 1017,5 92 - 192
12:19 8,2 6,9 6,1 WNW 14,5 1017,5 92 - 209
12:24 7,9 6,7 3,5 West 5,6 1017,5 92 - 227
12:29 7,8 6,7 4,2 WSW 6,4 1017,5 93 - 279
12:34 7,7 6,6 5,3 WSW 5,6 1017,5 93 - 283
12:39 7,7 6,7 5,5 West 9,7 1017,8 93 - 251
12:44 7,7 6,7 5,5 WNW 11,3 1017,8 93 - 202
12:49 7,5 6,4 6,9 West 9,3 1017,8 93 - 223
12:54 7,4 6,4 5,3 West 11,3 1017,8 93 - 359
12:59 7,4 6,3 8,4 WNW 14,5 1017,8 93 - 287
13:04 7,4 6,4 9,2 WNW 11,1 1017,8 93 - 336
13:09 7,6 6,5 3,9 West 7,4 1017,8 93 - 338
13:14 7,9 7,1 9,8 WNW 14,8 1017,8 94 - 302
13:19 7,9 6,8 3,5 West 11,1 1018,2 93 - 294
13:25 8,1 7,2 7,1 WNW 13,0 1018,2 94 - 306
13:29 8,0 6,9 4,5 SW 11,1 1018,2 93 - 304
13:34 8,1 7,0 11,9 West 14,8 1018,2 93 - 234
13:39 7,8 6,8 13,7 West 20,4 1018,5 93 - 218
13:44 7,6 6,5 6,4 West 11,1 1018,5 93 - 255
13:49 7,4 6,4 5,0 West 11,1 1018,5 93 - 292
13:54 7,6 6,7 8,9 West 13,0 1018,5 94 - 255
13:59 7,8 6,9 5,8 West 13,0 1018,5 94 - 301
14:04 7,8 6,9 4,0 West 7,4 1018,5 94 - 353
14:09 7,8 6,7 10,8 West 18,5 1018,5 93 - 288
14:14 7,7 6,6 12,6 WNW 18,5 1018,5 93 - 283
14:19 7,7 6,6 5,6 West 11,3 1018,8 93 - 294
14:24 7,7 6,7 4,2 WSW 5,6 1018,8 93 - 287
14:29 7,8 6,7 7,1 WSW 9,3 1018,8 93 - 276
14:34 7,9 6,8 4,3 West 5,6 1018,8 93 - 329
14:39 8,1 7,2 6,0 West 5,6 1018,8 94 - 246
14:44 7,9 6,8 5,8 WSW 11,1 1019,2 93 - 232
14:49 7,7 6,7 6,6 West 9,3 1019,2 93 - 237
14:54 7,7 6,7 4,8 West 16,7 1019,2 93 - 251
14:59 7,7 6,6 7,6 West 7,4 1019,2 93 - 244
15:04 7,7 6,7 6,8 WNW 13,0 1019,2 93 - 234
15:09 7,8 6,9 9,0 West 14,8 1019,2 94 - 243
15:14 7,7 6,6 5,1 WSW 7,4 1019,2 93 - 221
15:19 7,8 6,9 9,8 West 11,1 1019,2 94 - 295
15:24 7,7 6,6 5,5 WNW 16,7 1019,5 93 - 287
15:29 7,9 7,1 1,4 West 5,6 1019,5 94 - 311
15:34 8,0 6,9 5,5 West 6,4 1019,5 93 - 272
15:39 8,3 7,4 8,7 WNW 16,7 1019,5 94 - 264
15:44 8,4 7,3 7,6 West 9,3 1019,5 93 - 241
15:49 8,4 7,2 4,8 West 9,3 1019,5 92 - 338
15:54 8,7 7,4 8,4 West 11,1 1019,5 92 - 424
15:59 9,2 8,0 6,0 West 14,8 1019,5 92 - 357
16:04 9,4 8,0 3,2 West 5,6 1019,5 91 - 390
16:09 9,8 8,2 5,6 West 9,3 1019,2 90 - 357
16:14 9,8 8,1 7,4 WNW 13,0 1019,2 89 - 471
16:19 10,0 8,1 14,6 West 16,7 1019,2 88 - 515
16:24 10,2 8,1 13,8 West 18,5 1019,5 87 - 424
16:29 9,8 7,6 9,8 West 13,0 1019,5 86 - 499
16:34 10,1 8,0 5,0 WNW 9,3 1019,5 87 - 387
16:39 9,8 7,6 15,0 WNW 20,4 1019,5 86 - 371
16:44 9,6 7,4 5,5 WSW 5,6 1019,5 86 - 387
16:50 9,8 7,7 6,6 WSW 13,0 1019,5 87 - 394
16:54 9,7 7,7 14,2 NW 16,7 1019,5 87 - 264
16:59 10,1 7,8 9,5 WNW 11,3 1019,5 86 - 376
17:04 9,9 7,7 6,0 WNW 11,1 1019,5 86 - 573
17:10 9,8 7,4 10,5 WNW 14,8 1019,9 85 - 163
17:14 9,4 7,2 13,0 WNW 16,7 1019,9 86 - 552
17:19 9,4 7,2 14,0 WNW 18,5 1019,9 86 - 387
17:24 8,9 6,7 7,1 WSW 9,3 1019,9 86 - 72
17:29 8,3 6,3 8,9 WNW 14,8 1020,2 87 - 53
17:34 8,0 6,1 6,8 WNW 8,0 1020,2 88 - 51
17:39 7,8 6,1 12,1 WNW 18,5 1020,2 89 - 56
17:45 7,8 6,1 8,5 West 14,8 1020,5 89 - 62
17:49 7,7 6,1 8,5 West 9,7 1020,5 90 - 65
17:54 7,5 5,9 10,3 West 14,8 1020,5 90 - 77
17:59 7,4 5,9 6,8 West 13,0 1020,5 90 - 77
18:04 7,4 6,0 1,0 WNW 4,8 1020,5 91 - 62
18:09 7,4 6,1 1,4 WNW 7,4 1020,5 91 - 67
18:14 7,6 6,2 4,7 WNW 5,6 1020,2 91 - 76
18:19 7,7 6,3 4,7 WNW 5,6 1020,2 91 - 70
18:24 7,8 6,4 2,9 WNW 6,4 1020,5 91 - 53
18:29 7,8 6,2 8,9 WNW 16,1 1020,5 90 - 49
18:34 7,7 6,2 7,1 WNW 9,3 1020,5 90 - 54
18:39 7,8 6,2 3,5 WNW 6,4 1020,5 90 - 60
18:44 7,8 6,3 5,6 WNW 8,0 1020,5 90 - 56
18:49 7,8 6,3 4,3 WNW 11,1 1020,5 90 - 62
18:54 7,8 6,3 7,1 WNW 6,4 1020,9 90 - 58
18:59 7,8 6,2 4,2 WNW 7,4 1020,9 90 - 60
19:04 7,8 6,3 7,2 WNW 14,8 1020,9 90 - 47
19:09 7,7 6,2 5,1 WNW 11,1 1021,2 90 - 44
19:14 7,7 6,1 3,5 WNW 8,0 1021,2 90 - 35
19:19 7,6 6,2 4,0 WNW 5,6 1021,2 91 - 33
19:24 7,6 6,0 3,5 WNW 5,6 1021,2 90 - 30
19:29 7,5 6,1 3,4 WNW 5,6 1021,2 91 - 26
19:34 7,5 6,1 4,2 WNW 5,6 1021,2 91 - 25
19:40 7,5 5,9 1,6 WNW 5,6 1021,2 90 - 21
19:44 7,4 5,9 6,8 West 11,1 1021,2 90 - 14
19:49 7,4 5,8 0,6 WNW 3,7 1021,2 90 - 11
19:54 7,2 5,7 1,9 WNW 13,0 1021,2 90 - 7
19:59 7,2 5,6 1,9 WNW 5,6 1021,2 90 - 5
20:04 7,0 5,4 6,0 West 7,4 1021,6 90 - -
20:09 6,8 5,3 5,6 WNW 5,6 1021,6 90 - -
20:14 6,6 5,2 5,6 WNW 11,1 1021,6 91 - -
20:19 6,4 5,1 4,8 WNW 7,4 1021,9 91 - -
20:24 6,3 5,1 0,8 WNW 1,9 1021,9 92 - -
20:29 6,1 4,9 0,3 WNW   1021,9 92 - -
20:34 5,9 4,7   Calm   1021,9 92 - -
20:39 5,9 4,8   Calm 1,9 1021,9 93 - -
20:44 5,7 4,7   Calm   1021,9 93 - -
20:49 5,6 4,6   Calm   1022,2 93 - -
20:54 5,4 4,3   Calm   1021,9 93 - -
20:59 5,3 4,2   Calm   1021,9 93 - -
21:04 5,2 4,1   Calm   1021,9 93 - -
21:09 5,1 4,2   Calm   1022,2 94 - -
21:14 4,9 4,1 0,5 WNW 1,6 1022,2 94 - -
21:19 4,9 4,0   Calm   1022,2 94 - -
21:24 4,9 4,1   Calm   1022,2 94 - -
21:29 4,9 4,0   Calm   1022,2 94 - -
21:34 4,8 3,9   Calm   1022,6 94 - -
21:39 4,8 3,9 0,5 WNW 1,9 1022,6 94 - -
21:44 4,8 4,1   Calm   1022,6 95 - -
21:49 4,8 4,1   Calm   1022,6 95 - -
21:54 4,7 3,9   Calm   1022,9 95 - -
21:59 4,4 3,6   Calm   1022,9 94 - -
22:05 4,4 3,7   Calm   1022,9 95 - -
22:09 4,3 3,6   Calm   1022,9 95 - -
22:15 4,3 3,6   Calm   1022,9 95 - -
22:19 4,2 3,4 0,2 WNW 1,6 1022,9 95 - -
22:24 4,1 3,4   Calm   1022,9 95 - -
22:29 4,1 3,4 0,3 WNW   1022,9 95 - -

Download your copy of this data-set  here

Our weather-data as stored at Weather Underground. Script developed by Jim McMurry. Adapted for the template by Leuven-Template.eu